TimeEST,TemperatureF,Dew PointF,Humidity,Sea Level PressureIn,VisibilityMPH,Wind Direction,Wind SpeedMPH,Gust SpeedMPH,PrecipitationIn,Events,Conditions,WindDirDegrees,DateUTC
12:51 AM,3.9,-0.9,80,29.70,7.0,WSW,6.9,-,N/A,,Overcast,250,2012-03-05 05:51:00
1:26 AM,3.2,-0.4,85,29.63,4.0,West,5.8,-,N/A,,Haze,260,2012-03-05 06:26:00
1:40 AM,3.2,-0.4,85,29.63,2.0,WSW,6.9,-,0.00,Snow,Light Snow,250,2012-03-05 06:40:00
1:51 AM,3.0,-2.0,80,29.73,2.5,West,6.9,-,0.00,,Haze,280,2012-03-05 06:51:00
2:03 AM,3.2,-2.2,78,29.64,4.0,WSW,9.2,16.1,N/A,,Haze,250,2012-03-05 07:03:00
2:51 AM,1.0,-4.0,79,29.75,5.0,West,6.9,-,N/A,,Haze,270,2012-03-05 07:51:00
3:51 AM,-0.9,-6.0,79,29.79,5.0,WSW,6.9,-,N/A,,Haze,250,2012-03-05 08:51:00
4:51 AM,-0.9,-7.1,75,29.81,10.0,Variable,6.9,-,N/A,,Mostly Cloudy,0,2012-03-05 09:51:00
5:51 AM,-2.0,-8.0,76,29.84,9.0,West,4.6,-,N/A,,Mostly Cloudy,260,2012-03-05 10:51:00
6:38 AM,-2.2,-7.6,78,29.76,7.0,SW,4.6,-,N/A,,Overcast,230,2012-03-05 11:38:00
6:51 AM,-2.0,-7.1,79,29.87,5.0,Calm,Calm,-,N/A,,Haze,0,2012-03-05 11:51:00
7:51 AM,-0.9,-6.0,79,29.92,9.0,SW,6.9,-,N/A,,Overcast,230,2012-03-05 12:51:00
8:51 AM,1.0,-6.0,72,29.95,6.0,WSW,9.2,-,N/A,,Haze,240,2012-03-05 13:51:00
9:51 AM,3.9,-5.1,66,29.98,7.0,WSW,11.5,16.1,N/A,,Overcast,240,2012-03-05 14:51:00
10:51 AM,5.0,-4.0,66,30.01,9.0,West,10.4,-,N/A,,Overcast,280,2012-03-05 15:51:00
11:51 AM,7.0,-2.0,67,30.03,10.0,WSW,8.1,-,N/A,,Mostly Cloudy,250,2012-03-05 16:51:00
12:08 PM,8.6,-2.2,62,29.92,10.0,West,11.5,-,N/A,,Scattered Clouds,260,2012-03-05 17:08:00
12:39 PM,10.4,-0.4,62,29.93,10.0,WNW,9.2,-,N/A,,Mostly Cloudy,290,2012-03-05 17:39:00
12:51 PM,10.0,-0.0,64,30.05,10.0,West,8.1,-,N/A,,Mostly Cloudy,260,2012-03-05 17:51:00
1:51 PM,12.0,-0.0,59,30.07,10.0,West,6.9,-,N/A,,Overcast,260,2012-03-05 18:51:00
2:44 PM,14.0,1.4,57,29.98,10.0,West,6.9,-,N/A,,Partly Cloudy,280,2012-03-05 19:44:00
2:51 PM,14.0,1.9,59,30.10,10.0,Variable,6.9,-,N/A,,Scattered Clouds,0,2012-03-05 19:51:00
3:51 PM,15.1,3.0,59,30.13,10.0,West,8.1,-,N/A,,Clear,270,2012-03-05 20:51:00
4:51 PM,14.0,1.9,59,30.16,10.0,West,8.1,-,N/A,,Clear,270,2012-03-05 21:51:00
5:51 PM,10.9,1.0,64,30.21,10.0,WSW,5.8,-,N/A,,Clear,250,2012-03-05 22:51:00
6:27 PM,10.4,1.4,67,30.11,10.0,WSW,6.9,-,N/A,,Mostly Cloudy,250,2012-03-05 23:27:00
6:51 PM,10.0,1.9,70,30.25,10.0,WSW,5.8,-,N/A,,Overcast,250,2012-03-05 23:51:00
7:51 PM,8.1,1.0,73,30.28,10.0,WSW,4.6,-,N/A,,Mostly Cloudy,240,2012-03-06 00:51:00
8:04 PM,6.8,1.4,79,30.16,10.0,WSW,5.8,-,N/A,,Partly Cloudy,240,2012-03-06 01:04:00
8:51 PM,3.0,-0.0,87,30.32,10.0,SW,4.6,-,N/A,,Clear,230,2012-03-06 01:51:00
9:51 PM,-2.0,-6.0,83,30.34,10.0,Calm,Calm,-,N/A,,Clear,0,2012-03-06 02:51:00
10:51 PM,-4.0,-9.0,79,30.36,10.0,Calm,Calm,-,N/A,,Clear,0,2012-03-06 03:51:00
11:51 PM,-5.1,-9.0,83,30.37,10.0,Calm,Calm,-,N/A,,Clear,0,2012-03-06 04:51:00